DW8454 Weather Reports


Display with metric or nautical units.
time (UTC)temp
F
wind
direction
speed
MPH
gust
MPH
rain 1hr
in
rain 24hr
in
rain mn
in
humidity
%
barometer
mb
20260903013332 84 254 1.0 5.0 0.00 0.00 0.00 74 1011.7
20260903012314 84 213 1.0 5.0 0.00 0.00 0.00 74 1011.7
20260903011324 84 253 1.0 4.0 0.00 0.00 0.00 74 1011.7
20260903010314 84 222 1.0 4.0 0.00 0.00 0.00 75 1011.6
20260903004219 84 220 0.0 3.0 0.00 0.00 0.00 75 1011.5
20260903002040 85 232 0.0 0.0 0.00 0.00 0.00 73 1011.5
20260902233330 87 248 2.0 5.0 0.00 0.00 0.00 69 1011.5
20260902232322 88 276 2.0 5.0 0.00 0.00 0.00 68 1011.4
20260902231250 89 244 3.0 6.0 0.00 0.00 0.00 66 1011.4
20260902230249 89 225 2.0 6.0 0.00 0.00 0.00 66 1011.4
20260902225258 89 273 2.0 9.0 0.00 0.00 0.00 66 1011.2
20260902224244 89 261 4.0 9.0 0.00 0.00 0.00 65 1011.4
20260902222115 91 263 4.0 7.0 0.00 0.00 0.00 63 1011.4
20260902221106 91 282 4.0 9.0 0.00 0.00 0.00 62 1011.3
20260902220031 91 314 5.0 10.0 0.00 0.00 0.00 63 1011.3
20260902215047 92 267 5.0 11.0 0.00 0.00 0.00 62 1011.3
20260902212926 92 277 5.0 12.0 0.00 0.00 0.00 60 1011.4
20260902211854 93 260 5.0 12.0 0.00 0.00 0.00 61 1011.4
20260902210911 93 207 4.0 9.0 0.00 0.00 0.00 62 1011.5
20260902205925 93 249 6.0 13.0 0.00 0.00 0.00 61 1011.6
20260902204914 94 285 4.0 13.0 0.00 0.00 0.00 61 1011.7
20260902203908 94 319 4.0 11.0 0.00 0.00 0.00 63 1011.9
20260902202852 94 262 3.0 8.0 0.00 0.00 0.00 63 1012.1
20260902200744 94 293 4.0 9.0 0.00 0.00 0.00 60 1012.2
20260902195741 94 259 4.0 9.0 0.00 0.00 0.00 61 1012.2
20260902194744 94 258 4.0 9.0 0.00 0.00 0.00 65 1012.3
20260902193758 94 295 5.0 10.0 0.00 0.00 0.00 63 1012.5
20260902192729 94 259 5.0 10.0 0.00 0.00 0.00 62 1012.6
20260902191701 93 261 4.0 9.0 0.00 0.00 0.00 62 1012.7
20260902185615 93 232 3.0 6.0 0.00 0.00 0.00 63 1012.8
20260902184606 92 240 3.0 10.0 0.00 0.00 0.00 62 1012.9
20260902182459 93 229 3.0 8.0 0.00 0.00 0.00 61 1013.2
20260902181518 93 225 4.0 7.0 0.00 0.00 0.00 63 1013.4
20260902180451 93 284 3.0 7.0 0.00 0.00 0.00 67 1013.3
20260902175512 93 243 3.0 7.0 0.00 0.00 0.00 65 1013.4
20260902174530 92 253 2.0 5.0 0.00 0.00 0.00 64 1013.5
20260902173530 93 264 4.0 7.0 0.00 0.00 0.00 64 1013.6
20260902172526 93 320 3.0 7.0 0.00 0.00 0.00 63 1013.8
20260902171534 92 280 4.0 7.0 0.00 0.00 0.00 65 1014.0
20260902170503 91 291 4.0 7.0 0.00 0.00 0.00 67 1014.1
20260902165452 92 270 2.0 7.0 0.00 0.00 0.00 66 1014.1
20260902164500 91 261 2.0 5.0 0.00 0.00 0.00 65 1014.1
20260902163434 91 275 2.0 5.0 0.00 0.00 0.00 68 1014.2
20260902160111 89 184 1.0 4.0 0.00 0.00 0.00 70 1014.2
20260902155101 88 243 2.0 5.0 0.00 0.00 0.00 73 1014.4
20260902152930 88 185 1.0 7.0 0.00 0.00 0.00 73 1014.5
20260902151952 87 240 2.0 5.0 0.00 0.00 0.00 71 1014.5
20260902150927 87 294 2.0 5.0 0.00 0.00 0.00 75 1014.5
20260902145849 86 262 2.0 5.0 0.00 0.00 0.00 76 1014.5
20260902144854 85 273 2.0 6.0 0.00 0.00 0.00 77 1014.6
20260902143858 85 263 2.0 6.0 0.00 0.00 0.00 78 1014.5
20260902142826 85 266 2.0 5.0 0.00 0.00 0.00 77 1014.5
20260902141757 85 276 2.0 5.0 0.00 0.00 0.00 78 1014.3
20260902140820 84 223 2.0 5.0 0.00 0.00 0.00 81 1014.2
20260902134626 83 277 2.0 5.0 0.00 0.00 0.00 83 1014.2
20260902133601 82 263 1.0 5.0 0.00 0.00 0.00 81 1014.1
20260902131451 81 270 1.0 4.0 0.00 0.00 0.00 84 1014.1
20260902130501 80 231 1.0 3.0 0.00 0.00 0.00 84 1014.0
20260902125444 79 166 1.0 4.0 0.00 0.00 0.00 86 1014.0
20260902124433 79 188 1.0 4.0 0.00 0.00 0.00 87 1014.0
20260902123405 78 226 1.0 3.0 0.00 0.00 0.00 88 1014.0
20260902122343 77 245 1.0 3.0 0.00 0.00 0.00 89 1014.1
20260902121406 76 204 1.0 4.0 0.00 0.00 0.00 90 1014.1
20260902120410 76 259 1.0 4.0 0.00 0.00 0.00 91 1013.9
20260902115412 75 234 1.0 3.0 0.00 0.00 0.00 91 1013.9
20260902113228 75 269 0.0 3.0 0.00 0.00 0.00 92 1013.7
20260902111058 75 243 0.0 2.0 0.00 0.00 0.00 92 1013.4
20260902110038 75 225 0.0 3.0 0.00 0.00 0.00 92 1013.4
20260902105058 75 208 0.0 3.0 0.00 0.00 0.00 91 1013.4
20260902104118 75 226 1.0 4.0 0.00 0.00 0.00 91 1013.3
20260902102006 75 239 1.0 4.0 0.00 0.00 0.00 91 1013.3
20260902100941 75 223 1.0 3.0 0.00 0.00 0.00 92 1013.3
20260902095911 75 247 1.0 3.0 0.00 0.00 0.00 91 1013.3
20260902094911 75 243 0.0 4.0 0.00 0.00 0.00 92 1013.3
20260902093933 75 219 0.0 5.0 0.00 0.00 0.00 92 1013.3
20260902092940 76 239 0.0 5.0 0.00 0.00 0.00 91 1013.4
20260902091945 76 223 0.0 3.0 0.00 0.00 0.00 91 1013.4
20260902090921 75 220 0.0 3.0 0.00 0.00 0.00 92 1013.5
20260902084759 75 207 0.0 2.0 0.00 0.00 0.00 93 1013.6
20260902081559 75 209 0.0 0.0 0.00 0.00 0.00 93 1013.6
20260902080609 75 209 0.0 0.0 0.00 0.00 0.00 93 1013.5
20260902074438 75 209 0.0 0.0 0.00 0.00 0.00 93 1013.3
20260902073501 75 221 0.0 2.0 0.00 0.00 0.00 92 1013.4
20260902072513 75 221 0.0 1.0 0.00 0.00 0.00 92 1013.4
20260902071523 75 221 0.0 0.0 0.00 0.00 0.00 92 1013.4
20260902070540 75 221 0.0 0.0 0.00 0.00 0.00 92 1013.4
20260902065559 74 221 0.0 1.0 0.00 0.00 0.00 93 1013.6
20260902064533 74 221 0.0 0.0 0.00 0.00 0.00 93 1013.7
20260902062331 73 197 0.0 0.0 0.00 0.00 0.00 92 1013.7
20260902061256 73 197 0.0 0.0 0.00 0.00 0.00 92 1013.8
20260902053936 73 197 0.0 0.0 0.00 0.00 0.00 93 1013.8
20260902052920 73 197 0.0 0.0 0.00 0.00 0.00 93 1013.8
20260902051944 74 197 0.0 0.0 0.00 0.00 0.00 92 1013.8
20260902050914 74 197 0.0 0.0 0.00 0.00 0.00 92 1013.7
20260902045918 74 197 0.0 0.0 0.00 0.00 0.00 92 1013.7
20260902044849 74 194 0.0 0.0 0.00 0.00 0.00 92 1013.6
20260902043819 73 273 0.0 0.0 0.00 0.00 0.00 94 1013.7
20260902042755 73 286 0.0 0.0 0.00 0.00 0.00 94 1013.7
20260902040703 73 286 0.0 0.0 0.00 0.00 0.00 92 1013.2
20260902035641 73 286 0.0 0.0 0.00 0.00 0.00 91 1013.1
20260902033640 75 286 0.0 0.0 0.00 0.00 0.00 89 1013.2
20260902032631 75 286 0.0 0.0 0.00 0.00 0.00 87 1013.2
20260902031626 76 286 0.0 0.0 0.00 0.00 0.00 85 1013.3
20260902030628 78 286 0.0 0.0 0.00 0.00 0.00 82 1013.2
20260902025638 77 290 1.0 4.0 0.00 0.00 0.00 85 1013.5
20260902024640 77 295 1.0 4.0 0.00 0.00 0.00 86 1013.5
20260902023643 77 269 1.0 4.0 0.00 0.00 0.00 87 1013.5
20260902022706 77 267 0.0 3.0 0.00 0.00 0.00 86 1013.4
20260902021705 77 248 0.0 1.0 0.00 0.00 0.00 86 1013.4
20260902014456 77 246 0.0 1.0 0.00 0.00 0.00 82 1013.0